sat.trackr.live / text

‹ back to catalog

ONEWEB-0013

NORAD 45131 · 2020-008A

PAYLOAD ACTIVE UNKNOWN

§ Identity

Operator
Country
UK
Launch date
2020-02-06
Launch site
TYMSC
Launch vehicle
Mass (kg)
RCS (m²)

Purposes: comms

External: N2YO · Heavens-Above · Gunter

§ Orbital elements

Epoch: 2026-05-25T04:05:18.678912Z

Period
109.97 min
Inclination
87.8533°
Eccentricity
0.0002848
Mean motion
13.09456021 rev/d
Perigee alt
1,223.1 km
Apogee alt
1,227.4 km
Semi-major
7,603.4 km
B*
-2.2177e-3
RAAN
57.4666°
Arg perigee
73.6491°
Mean anomaly
286.4949°
Rev number
30,305

§ Raw data

ONEWEB-00131 45131U 20008A   26145.17035508 -.00000751  00000+0 -22177-2 0  99962 45131  87.8533  57.4666 0002848  73.6491 286.4949 13.09456021303050

JSON: /api/v1/satellites/45131 · /tle

For live sub-satellite position, see the globe view (requires WebGL).

§ Visibility from observer

Set your observer location to see the next 7 days of passes ≥ 10°. The values pass through the URL so the page stays shareable.

No JS? Fill the form by hand. The geolocation button needs JavaScript.